Tracking 29606 objects as of 18-Sep-2024
HD Live streaming from Space Station
objects crossing your sky now

STARLINK-1304

Track STARLINK-1304 now!
10-day predictions
STARLINK-1304 is classified as:


NORAD ID: 45376
Int'l Code: 2020-019S
Perigee: 553.1 km
Apogee: 555.5 km
Inclination: 53.1 °
Period: 95.6 minutes
Semi major axis: 6925 km
RCS: Unknown
Launch date: March 18, 2020
Source: United States (US)
Launch site: AIR FORCE EASTERN TEST RANGE (AFETR)
Your satellite tracking list
Your tracking list is empty




NASA's NSSDC Master Catalog

Two Line Element Set (TLE):
1 45376U 20019S   24261.72183812  .00004004  00000-0  28750-3 0  9997
2 45376  53.0535  61.6444 0001768  98.5828 261.5362 15.06409355248642
Source of the keplerian elements: AFSPC